Location: Shepherdstown, WV
(39.4326°N, 77.8042°W)
Time: 14:42:35
(UTC-04:00)

Tiros 1 despin weight - Pass Details

Date: 26 July 2021
Orbit: 593 x 641 km, 48.2° (Epoch: 22 September)

Event Time Altitude Azimuth Distance (km) Brightness Sun altitude
Rises 23:36:49 0° 291° (WNW) 2,914 ? -26.8°
Reaches altitude 10° 23:39:33 10° 277° (W) 1,995 ? -27.1°
Enters shadow 23:41:23 18° 256° (WSW) 1,528 ? -27.2°
